TimeAKDT,TemperatureF,Dew PointF,Humidity,Sea Level PressureIn,VisibilityMPH,Wind Direction,Wind SpeedMPH,Gust SpeedMPH,PrecipitationIn,Events,Conditions,WindDirDegrees,DateUTC
12:16 AM,33.8,28.4,81,30.09,10.0,Calm,Calm,-,N/A,,Mostly Cloudy,0,2012-10-04 08:16:00
12:36 AM,32.0,26.6,80,30.09,10.0,Calm,Calm,-,N/A,,Scattered Clouds,0,2012-10-04 08:36:00
12:56 AM,32.0,28.4,87,30.08,10.0,Calm,Calm,-,N/A,,Mostly Cloudy,0,2012-10-04 08:56:00
1:16 AM,32.0,28.4,87,30.08,10.0,West,3.5,-,N/A,,Overcast,270,2012-10-04 09:16:00
1:36 AM,32.0,26.6,80,30.07,10.0,Calm,Calm,-,N/A,,Overcast,0,2012-10-04 09:36:00
1:56 AM,32.0,26.6,80,30.07,10.0,Calm,Calm,-,N/A,,Overcast,0,2012-10-04 09:56:00
2:16 AM,32.0,26.6,80,30.06,10.0,Calm,Calm,-,N/A,,Scattered Clouds,0,2012-10-04 10:16:00
2:36 AM,30.2,26.6,86,30.06,10.0,Calm,Calm,-,N/A,,Partly Cloudy,0,2012-10-04 10:36:00
2:56 AM,32.0,28.4,87,30.06,10.0,Calm,Calm,-,N/A,,Clear,0,2012-10-04 10:56:00
3:16 AM,30.2,28.4,93,30.06,10.0,Calm,Calm,-,N/A,,Clear,0,2012-10-04 11:16:00
3:36 AM,30.2,28.4,93,30.05,10.0,Calm,Calm,-,N/A,,Clear,0,2012-10-04 11:36:00
3:56 AM,30.2,28.4,93,30.04,10.0,Calm,Calm,-,N/A,,Clear,0,2012-10-04 11:56:00
4:16 AM,30.2,26.6,86,30.05,10.0,South,3.5,-,N/A,,Clear,190,2012-10-04 12:16:00
4:36 AM,30.2,28.4,93,30.05,10.0,NW,3.5,-,N/A,,Clear,320,2012-10-04 12:36:00
4:56 AM,30.2,26.6,86,30.05,10.0,Calm,Calm,-,N/A,,Clear,0,2012-10-04 12:56:00
5:16 AM,30.2,28.4,93,30.05,10.0,Calm,Calm,-,N/A,,Scattered Clouds,0,2012-10-04 13:16:00
5:36 AM,30.2,26.6,86,30.03,10.0,Calm,Calm,-,N/A,,Scattered Clouds,0,2012-10-04 13:36:00
5:56 AM,30.2,28.4,93,30.03,10.0,Calm,Calm,-,N/A,,Clear,0,2012-10-04 13:56:00
6:16 AM,30.2,28.4,93,30.03,10.0,Calm,Calm,-,N/A,,Clear,0,2012-10-04 14:16:00
6:36 AM,30.2,28.4,93,30.03,10.0,Calm,Calm,-,N/A,,Clear,0,2012-10-04 14:36:00
6:56 AM,30.2,28.4,93,30.03,10.0,West,3.5,-,N/A,,Clear,260,2012-10-04 14:56:00
7:16 AM,30.2,30.2,100,30.02,10.0,West,5.8,-,N/A,,Clear,270,2012-10-04 15:16:00
7:36 AM,30.2,28.4,93,30.01,10.0,West,3.5,-,N/A,,Clear,260,2012-10-04 15:36:00
7:56 AM,30.2,28.4,93,30.01,10.0,Calm,Calm,-,N/A,,Clear,0,2012-10-04 15:56:00
8:16 AM,30.2,28.4,93,30.00,10.0,NNW,3.5,-,N/A,,Clear,340,2012-10-04 16:16:00
8:36 AM,30.2,30.2,100,29.99,10.0,NNE,4.6,-,N/A,,Clear,30,2012-10-04 16:36:00
8:56 AM,32.0,28.4,87,30.00,10.0,Calm,Calm,-,N/A,,Clear,0,2012-10-04 16:56:00
9:16 AM,32.0,28.4,87,30.01,10.0,WSW,5.8,-,N/A,,Clear,240,2012-10-04 17:16:00
9:36 AM,32.0,30.2,93,30.02,10.0,SSW,4.6,-,N/A,,Clear,210,2012-10-04 17:36:00
9:56 AM,33.8,30.2,87,30.01,10.0,West,3.5,-,N/A,,Clear,280,2012-10-04 17:56:00
10:16 AM,35.6,30.2,81,30.03,10.0,SSW,3.5,-,N/A,,Partly Cloudy,210,2012-10-04 18:16:00
10:36 AM,35.6,30.2,81,30.03,10.0,WSW,3.5,-,N/A,,Mostly Cloudy,240,2012-10-04 18:36:00
10:56 AM,35.6,32.0,87,30.01,10.0,Calm,Calm,-,N/A,,Overcast,0,2012-10-04 18:56:00
11:16 AM,37.4,32.0,81,30.02,10.0,Calm,Calm,-,N/A,,Overcast,0,2012-10-04 19:16:00
11:56 AM,39.2,32.0,75,30.02,10.0,Calm,Calm,-,N/A,,Overcast,0,2012-10-04 19:56:00
12:16 PM,39.2,33.8,81,30.02,10.0,Calm,Calm,-,N/A,,Overcast,0,2012-10-04 20:16:00
12:36 PM,41.0,33.8,76,30.02,10.0,Calm,Calm,-,N/A,,Mostly Cloudy,0,2012-10-04 20:36:00
12:56 PM,44.6,33.8,66,30.02,10.0,NW,4.6,-,N/A,,Overcast,320,2012-10-04 20:56:00
1:16 PM,46.4,30.2,53,30.02,10.0,Calm,Calm,-,N/A,,Mostly Cloudy,0,2012-10-04 21:16:00
1:36 PM,48.2,33.8,58,30.02,10.0,Calm,Calm,-,N/A,,Clear,0,2012-10-04 21:36:00
1:56 PM,48.2,32.0,54,30.02,10.0,SSE,4.6,-,N/A,,Clear,150,2012-10-04 21:56:00
2:16 PM,48.2,32.0,54,30.03,10.0,Calm,Calm,-,N/A,,Partly Cloudy,0,2012-10-04 22:16:00
2:36 PM,48.2,33.8,58,30.03,10.0,Calm,Calm,-,N/A,,Scattered Clouds,0,2012-10-04 22:36:00
2:56 PM,48.2,33.8,58,30.03,10.0,Calm,Calm,-,N/A,,Clear,0,2012-10-04 22:56:00
3:16 PM,48.2,33.8,58,30.03,10.0,SSW,3.5,-,N/A,,Clear,210,2012-10-04 23:16:00
3:36 PM,48.2,33.8,58,30.02,10.0,West,5.8,-,N/A,,Clear,260,2012-10-04 23:36:00
3:56 PM,48.2,33.8,58,30.01,10.0,Calm,Calm,-,N/A,,Clear,0,2012-10-04 23:56:00
4:16 PM,48.2,35.6,62,30.01,10.0,Calm,Calm,-,N/A,,Clear,0,2012-10-05 00:16:00
4:36 PM,48.2,35.6,62,30.02,10.0,West,3.5,-,N/A,,Clear,260,2012-10-05 00:36:00
4:56 PM,48.2,33.8,58,30.01,10.0,Calm,Calm,-,N/A,,Clear,0,2012-10-05 00:56:00
5:16 PM,46.4,35.6,66,30.01,10.0,Calm,Calm,-,N/A,,Clear,0,2012-10-05 01:16:00
5:36 PM,46.4,33.8,62,30.01,10.0,SSE,3.5,-,N/A,,Clear,160,2012-10-05 01:36:00
5:56 PM,44.6,33.8,66,30.01,10.0,Calm,Calm,-,N/A,,Clear,0,2012-10-05 01:56:00
6:16 PM,44.6,33.8,66,30.02,10.0,Calm,Calm,-,N/A,,Clear,0,2012-10-05 02:16:00
6:36 PM,42.8,33.8,70,30.02,10.0,WSW,4.6,-,N/A,,Clear,240,2012-10-05 02:36:00
6:56 PM,44.6,33.8,66,30.03,10.0,WSW,6.9,-,N/A,,Partly Cloudy,250,2012-10-05 02:56:00
7:16 PM,42.8,33.8,70,30.03,10.0,West,4.6,-,N/A,,Mostly Cloudy,280,2012-10-05 03:16:00
7:36 PM,42.8,32.0,66,30.03,10.0,WNW,9.2,-,N/A,,Scattered Clouds,290,2012-10-05 03:36:00
7:56 PM,41.0,33.8,76,30.05,10.0,WNW,5.8,-,N/A,,Clear,290,2012-10-05 03:56:00
8:16 PM,42.8,35.6,76,30.05,10.0,Calm,Calm,-,N/A,,Clear,0,2012-10-05 04:16:00
8:36 PM,39.2,33.8,81,30.05,10.0,North,3.5,-,N/A,,Clear,350,2012-10-05 04:36:00
8:56 PM,39.2,33.8,81,30.05,10.0,North,5.8,-,N/A,,Clear,350,2012-10-05 04:56:00
9:16 PM,39.2,33.8,81,30.05,10.0,East,4.6,-,N/A,,Clear,80,2012-10-05 05:16:00
9:36 PM,39.2,33.8,81,30.06,10.0,ESE,3.5,-,N/A,,Clear,120,2012-10-05 05:36:00
9:56 PM,39.2,33.8,81,30.06,10.0,NW,4.6,-,N/A,,Clear,310,2012-10-05 05:56:00
10:16 PM,39.2,33.8,81,30.07,10.0,West,3.5,-,N/A,,Clear,270,2012-10-05 06:16:00
10:36 PM,37.4,33.8,87,30.07,10.0,Calm,Calm,-,N/A,,Clear,0,2012-10-05 06:36:00
10:56 PM,37.4,35.6,93,30.08,10.0,Calm,Calm,-,N/A,,Clear,0,2012-10-05 06:56:00
11:16 PM,39.2,33.8,81,30.08,10.0,NW,3.5,-,N/A,,Clear,310,2012-10-05 07:16:00
11:36 PM,39.2,33.8,81,30.09,10.0,Calm,Calm,-,N/A,,Clear,0,2012-10-05 07:36:00
11:56 PM,39.2,33.8,81,30.09,10.0,Calm,Calm,-,N/A,,Clear,0,2012-10-05 07:56:00